Starlink 31700

operational
NORAD ID: 59436 Int'l Des: 2024-065 Owner: SPXS Country: US Constellation: starlink
LEOCIRCULAR

关于 Starlink 31700

正在加载描述...

实时位置

正在加载3D地球...

即将过境

高度历史

Altitude vs Time

uPlot chart will show altitude changes over time

两行轨道根数

1 59436U 24065R 25258.59190308 .00001513 00000-0 63210-4 0 9997
2 59436 53.1627 14.8076 0001198 84.3750 275.7387 15.30194304 82127
Epoch: Sep 15, 2025 • Age: 18 hours

当前状态

高度 493.7 km
速度 7.62 km/s
星下点 -50.96°S, 134.04°E
发射日期 Apr 7, 2024
运行时间 1.4 years
类型 internet

技术详情

分类 Payload
质量 730.00 kg
干质量 700.00 kg
总质量 730.00 kg
长度 0.30 m
直径 4.10 m
跨度 29.00 m
形状 Box + pan
制造商 SPXS
平台类型 Starlink V2M
阶段状态 In Orbit
所有者/国家 SPXS/US

大型星座

Loading constellations...